COSMOS 2251 DEB, 34271

Orbit data source: Space-Track

COSMOS 2251 DEB, 34271 is space debris in LEO originally from a launch on Wed, 16 Jun 1993 UTC launched from the Plesetsk Missile And Space Complex (PKMTR). The debris from Iridium 33, an American commercial communications satellite, has been tracked extensively since its accidental collision with the defunct Russian satellite Cosmos 2251 in 2009. This event, occurring at high speed in low Earth orbit (LEO), generated thousands of pieces of space debris, significantly increasing the risk of further collisions. The Iridium 33 debris cloud has impacted space traffic management and orbital debris mitigation strategies, making it a subject of ongoing study in space situational awareness.

Loading next visibility...
Identifier
34271, 1993-036LR
Orbit
LEO
Country
Flag of CISCIS
Related business
Manufacturer
Unknown
Mission
Spacecraft
Bus & Motor
Unknown
Mass
Unknown
Launch date (UTC)
1993-06-16 (33 years ago)
Launch vehicle
Unknown
Launch site
Plesetsk Missile And Space Complex (PKMTR)
Object type
Payload
Rocket body
Debris
Shape & HBR
Unknown shape, 0.1 m
Radar Cross Section
Small (<0.1 m²)

Expand to show TLE details & history
Last TLE update: 20 hours ago

TLE from 20 hours ago
0 COSMOS 2251 DEB
1 34271U 93036LR  26144.69863781  .00008108  00000-0  12025-2 0  9992
2 34271  74.0184 241.4464 0016466 267.1043 216.9015 14.75129147906341
Epoch: 2026-05-24T16:46Z
TLE epoch observation values (Epoch: 2026-05-24T16:46:02.306Z)
Latitude
53.05006°
Longitude
-94.61334°
Altitude
662.318 km
Speed
7.526 km/s
True Right ascension
02h 36m 46s
True Declination
52° 52' 57"
Sunlit
Object was in daylight at epoch
Visualization orbit readout
Latitude
Unknown
Longitude
Unknown
Altitude
Unknown
Speed
Unknown
Apparent Right ascension
Unknown
Apparent Declination
Unknown
Sunlit
N/A
Visualization observer readout
Local Sidereal Time
21:42:43
Azimuth
Unknown
Elevation
Unknown
Doppler factor
Unknown
Orbital elements
Apogee altitude
653.884 km
Perigee altitude
630.764 km
Semi-major axis
7,020.461 km
Eccentricity
0.00165
Inclination
74.0184°
RAAN
241.4464°
Arg. of periapsis
267.1043°
True anomaly
216.78839°
Mean anomaly
216.9015°
Eccentric anomaly
216.84493°
Mean motion
3.68973 °/min
Orbital period
97.57 mins
BSTAR
0.0012025
Loading maneuver chart data...
Computing Atmospheric mass density...

Documentation

Showing up to 5 results
|